Tracking 30402 objects as of 12-May-2025
HD Live streaming from Space Station
objects crossing your sky now

STARLINK-3919

Track STARLINK-3919 now!
10-day predictions
STARLINK-3919 is classified as:


NORAD ID: 52580
Int'l Code: 2022-051AW
Perigee: 545.9 km
Apogee: 547.9 km
Inclination: 53.2 °
Period: 95.4 minutes
Semi major axis: 6917 km
RCS: Unknown
Launch date: May 13, 2022
Source: United States (US)
Launch site: AIR FORCE WESTERN TEST RANGE (AFWTR)
Your satellite tracking list
Your tracking list is empty




NASA's NSSDC Master Catalog

Two Line Element Set (TLE):
1 52580U 22051AW  25131.47369830  .00000638  00000-0  58177-4 0  9991
2 52580  53.2201  50.8327 0001461 103.7470 256.3685 15.08836916165750
Source of the keplerian elements: AFSPC